IRIDIUM 106 1 41917U 17003A 26253.84099480 .00000017 00000+0 -10781-5 0 9993 2 41917 86.3933 52.7158 0001918 82.6321 277.5092 14.34217265505484 IRIDIUM 103 1 41918U 17003B 26253.82831026 .00000061 00000+0 14619-4 0 9993 2 41918 86.3934 52.6204 0002330 90.6779 269.4684 14.34217110505501 IRIDIUM 109 1 41919U 17003C 26253.83465215 .00000028 00000+0 29295-5 0 9998 2 41919 86.3935 52.6786 0002187 90.8969 269.2478 14.34218201505478 IRIDIUM 102 1 41920U 17003D 26253.87271188 .00000030 00000+0 36002-5 0 9995 2 41920 86.3933 52.5843 0002088 90.6138 269.5297 14.34217648505563 IRIDIUM 105 1 41921U 17003E 26253.76154165 .00000165 00000+0 51965-4 0 9992 2 41921 86.4003 21.0806 0002288 99.2511 260.8944 14.34218694507405 IRIDIUM 104 1 41922U 17003F 26253.81564651 .00000154 00000+0 47982-4 0 9996 2 41922 86.3935 52.6521 0002420 95.8615 264.2857 14.34217664505548 IRIDIUM 114 1 41923U 17003G 26253.82197028 .00000031 00000+0 39683-5 0 9992 2 41923 86.3934 52.6324 0002253 91.1783 268.9671 14.34217630505524 IRIDIUM 108 1 41924U 17003H 26253.92002719 .00000051 00000+0 11205-4 0 9997 2 41924 86.3997 20.8991 0002126 95.1890 264.9548 14.34217201507393 IRIDIUM 112 1 41925U 17003J 26253.80928821 .00000021 00000+0 39014-6 0 9993 2 41925 86.3930 52.4757 0002173 92.8304 267.3140 14.34217141505541 IRIDIUM 111 1 41926U 17003K 26253.93613547 -.00000035 00000+0 -19607-4 0 9995 2 41926 86.3931 52.4956 0002052 89.9536 270.1895 14.34216784505545 IRIDIUM 113 1 42803U 17039A 26253.63702747 .00000052 00000+0 11339-4 0 9998 2 42803 86.3929 286.4633 0002335 94.2691 265.8772 14.34217948483434 IRIDIUM 123 1 42804U 17039B 26253.67850456 .00000015 00000+0 -17758-5 0 9996 2 42804 86.3985 317.9214 0002206 90.8520 269.2928 14.34217059482200 IRIDIUM 120 1 42805U 17039C 26253.90975865 .00000049 00000+0 10442-4 0 9993 2 42805 86.3918 286.1204 0002163 90.0383 270.1061 14.34217790483464 IRIDIUM 115 1 42806U 17039D 26253.95015596 .00000213 00000+0 57217-4 0 9999 2 42806 86.4455 286.2439 0002401 87.4022 272.7454 14.43280406486638 IRIDIUM 118 1 42807U 17039E 26253.71021669 .00000143 00000+0 44084-4 0 9992 2 42807 86.3989 317.9062 0002245 95.8718 264.2734 14.34217058482204 IRIDIUM 117 1 42808U 17039F 26253.72924441 .00000159 00000+0 49879-4 0 9998 2 42808 86.3987 317.8549 0002286 92.8085 267.3373 14.34217796482236 IRIDIUM 126 1 42809U 17039G 26253.61507808 .00000157 00000+0 48871-4 0 9990 2 42809 86.3990 317.9553 0002376 94.6832 265.4635 14.34217432482199 IRIDIUM 124 1 42810U 17039H 26253.53731293 .00000184 00000+0 48572-4 0 9998 2 42810 86.4428 254.6565 0002414 88.7627 271.3850 14.43278807487426 IRIDIUM 128 1 42811U 17039J 26253.74535382 .00000078 00000+0 20882-4 0 9999 2 42811 86.4026 349.3955 0002136 92.9909 267.1531 14.34217384482244 IRIDIUM 121 1 42812U 17039K 26253.70387300 .00000150 00000+0 46531-4 0 9991 2 42812 86.3990 317.9465 0002212 94.3477 265.7971 14.34217480482083 IRIDIUM 133 1 42955U 17061A 26253.70729871 .00000118 00000+0 35181-4 0 9990 2 42955 86.4029 349.5312 0002196 93.6840 266.4607 14.34217778467036 IRIDIUM 100 1 42956U 17061B 26253.84049223 .00000098 00000+0 27792-4 0 9998 2 42956 86.4026 349.3923 0002188 94.9522 265.1923 14.34217670467052 IRIDIUM 122 1 42957U 17061C 26253.94831442 .00000163 00000+0 51060-4 0 9990 2 42957 86.4028 349.3478 0002254 93.7258 266.4196 14.34217308467073 IRIDIUM 129 1 42958U 17061D 26253.83415058 .00000153 00000+0 47645-4 0 9993 2 42958 86.4030 349.4633 0002284 100.2442 259.9011 14.34217039467077 IRIDIUM 119 1 42959U 17061E 26253.73267062 .00000161 00000+0 50399-4 0 9992 2 42959 86.4028 349.5018 0002280 94.4419 265.7038 14.34217203467074 IRIDIUM 107 1 42960U 17061F 26253.75169750 .00000156 00000+0 48763-4 0 9997 2 42960 86.4029 349.5156 0002305 88.9522 271.1938 14.34217781467083 IRIDIUM 132 1 42961U 17061G 26253.75804001 .00000125 00000+0 37480-4 0 9993 2 42961 86.4028 349.4918 0002220 95.0195 265.1254 14.34217759467088 IRIDIUM 136 1 42962U 17061H 26253.78975236 .00000121 00000+0 36227-4 0 9990 2 42962 86.4029 349.4857 0002164 94.6985 265.4458 14.34217816467107 IRIDIUM 139 1 42963U 17061J 26253.72632674 .00000141 00000+0 43461-4 0 9991 2 42963 86.4030 349.5755 0002185 93.2130 266.9316 14.34217482467106 IRIDIUM 125 1 42964U 17061K 26253.78341219 .00000143 00000+0 43889-4 0 9996 2 42964 86.4032 349.6143 0002688 91.0955 269.0549 14.34217653467124 IRIDIUM 135 1 43070U 17083A 26253.82730518 .00000141 00000+0 43390-4 0 9993 2 43070 86.3919 286.2155 0002233 91.8578 268.2873 14.34217664456424 IRIDIUM 138 1 43071U 17083B 26253.64336981 .00000056 00000+0 12775-4 0 9998 2 43071 86.3936 286.0002 0002390 93.4393 266.7076 14.34218079456384 IRIDIUM 116 1 43072U 17083C 26253.61165672 .00000111 00000+0 32437-4 0 9992 2 43072 86.3923 286.2900 0002028 86.9393 273.2034 14.34217892456418 IRIDIUM 130 1 43073U 17083D 26253.57994427 .00000072 00000+0 18591-4 0 9997 2 43073 86.3933 286.5871 0002221 87.2093 272.9357 14.34217983456354 IRIDIUM 151 1 43074U 17083E 26253.62434173 .00000005 00000+0 -53372-5 0 9995 2 43074 86.3923 286.3439 0002067 91.3302 268.8131 14.34217593456383 IRIDIUM 134 1 43075U 17083F 26253.59262938 .00000037 00000+0 60998-5 0 9996 2 43075 86.3926 286.3670 0002254 90.7074 269.4380 14.34217750456345 IRIDIUM 137 1 43076U 17083G 26253.60531349 .00000017 00000+0 -87210-6 0 9990 2 43076 86.3927 286.4561 0001781 94.9247 265.2152 14.34217646456412 IRIDIUM 141 1 43077U 17083H 26253.59897190 .00000128 00000+0 38503-4 0 9999 2 43077 86.3924 286.2846 0002302 93.7102 266.4357 14.34217929456415 IRIDIUM 153 1 43078U 17083J 26253.96975842 .00000037 00000+0 60704-5 0 9990 2 43078 86.3908 254.5903 0002453 90.1241 270.0236 14.34217427457570 IRIDIUM 131 1 43079U 17083K 26253.58628579 .00000154 00000+0 47808-4 0 9990 2 43079 86.3929 286.4816 0002259 93.9553 266.1901 14.34218786456340 IRIDIUM 144 1 43249U 18030A 26253.97610435 .00000092 00000+0 25667-4 0 9997 2 43249 86.3907 254.5146 0002194 87.9430 272.2017 14.34217538442437 IRIDIUM 149 1 43250U 18030B 26253.98244581 .00000041 00000+0 77488-5 0 9998 2 43250 86.3906 254.4781 0002348 90.5746 269.5719 14.34217681442452 IRIDIUM 157 1 43251U 18030C 26253.93170322 -.00000113 00000+0 -47279-4 0 9991 2 43251 86.3910 254.5544 0002194 89.3101 270.8346 14.34216436442421 IRIDIUM 140 1 43252U 18030D 26253.95073004 .00000107 00000+0 31260-4 0 9997 2 43252 86.3907 254.5588 0002324 88.9373 271.2089 14.34218199442480 IRIDIUM 145 1 43253U 18030E 26253.93804676 .00000044 00000+0 85384-5 0 9990 2 43253 86.3907 254.5361 0002102 84.7060 275.4375 14.34217512442416 IRIDIUM 146 1 43254U 18030F 26253.98878513 .00000037 00000+0 62159-5 0 9994 2 43254 86.3907 254.5268 0002199 88.1819 271.9628 14.34217252442434 IRIDIUM 148 1 43255U 18030G 26253.95707468 .00000061 00000+0 14687-4 0 9991 2 43255 86.3909 254.5845 0002236 91.6263 268.5189 14.34217734442464 IRIDIUM 142 1 43256U 18030H 26253.92536035 .00000024 00000+0 13749-5 0 9997 2 43256 86.3905 254.4837 0002142 87.8815 272.2626 14.34217408442429 IRIDIUM 150 1 43257U 18030J 26253.96341670 .00000022 00000+0 88610-6 0 9999 2 43257 86.3908 254.5870 0002254 87.8230 272.3224 14.34217630442451 IRIDIUM 143 1 43258U 18030K 26253.94438668 .00000015 00000+0 -17556-5 0 9995 2 43258 86.3912 254.6908 0002251 87.2442 272.9012 14.34217544442383 IRIDIUM 161 1 43478U 18047C 26253.51525355 .00000037 00000+0 50996-5 0 9998 2 43478 86.4453 52.7610 0002242 95.8848 264.2608 14.43280405437442 IRIDIUM 152 1 43479U 18047D 26253.84734113 .00000025 00000+0 17797-5 0 9998 2 43479 86.3929 52.4841 0002181 91.6184 268.5261 14.34217752434761 IRIDIUM 147 1 43480U 18047E 26253.85368136 .00000028 00000+0 28627-5 0 9996 2 43480 86.3931 52.4881 0002043 88.9383 271.2047 14.34217825434761 IRIDIUM 110 1 43481U 18047F 26253.86002742 .00000039 00000+0 68617-5 0 9991 2 43481 86.3934 52.5796 0002285 97.1384 263.0072 14.34217363434755 IRIDIUM 162 1 43482U 18047G 26253.50894411 .00000251 00000+0 68693-4 0 9994 2 43482 86.4452 52.6536 0002159 89.7091 270.4357 14.43286840437439 IRIDIUM 160 1 43569U 18061A 26253.73609023 .00000085 00000+0 23441-4 0 9991 2 43569 86.4000 21.0160 0002141 94.7060 265.4381 14.34217172425632 IRIDIUM 166 1 43570U 18061B 26253.76145919 .00000153 00000+0 47477-4 0 9996 2 43570 86.3997 20.9548 0002063 92.9190 267.2242 14.34217169425668 IRIDIUM 158 1 43571U 18061C 26253.72975001 .00000146 00000+0 45130-4 0 9992 2 43571 86.3998 20.9780 0002228 92.9563 267.1888 14.34217688425622 IRIDIUM 165 1 43572U 18061D 26253.75512003 .00000128 00000+0 38708-4 0 9998 2 43572 86.4000 21.0154 0002087 91.5441 268.5994 14.34217637425658 IRIDIUM 155 1 43573U 18061E 26253.92636981 .00000069 00000+0 17511-4 0 9993 2 43573 86.3996 20.8087 0002155 91.2768 268.8675 14.34217548425648 IRIDIUM 154 1 43574U 18061F 26253.90734172 .00000121 00000+0 36131-4 0 9991 2 43574 86.4000 20.9545 0002054 91.9968 268.1463 14.34217771425694 IRIDIUM 163 1 43575U 18061G 26253.88831439 .00000157 00000+0 48902-4 0 9991 2 43575 86.3997 20.8750 0002185 94.3441 265.8004 14.34217641425662 IRIDIUM 156 1 43576U 18061H 26253.79316939 .00000126 00000+0 38048-4 0 9991 2 43576 86.4000 20.9221 0002186 91.3875 268.7572 14.34217187425647 IRIDIUM 164 1 43577U 18061J 26253.77414756 .00000160 00000+0 50060-4 0 9992 2 43577 86.3998 20.9717 0002008 92.7656 267.3770 14.34217892425680 IRIDIUM 159 1 43578U 18061K 26253.88197098 .00000104 00000+0 30170-4 0 9990 2 43578 86.3997 20.8619 0002206 95.1441 265.0007 14.34217839425666 IRIDIUM 180 1 43922U 19002A 26253.74193279 .00000156 00000+0 48582-4 0 9994 2 43922 86.3989 317.8549 0002231 95.4738 264.6712 14.34218510401255 IRIDIUM 176 1 43923U 19002B 26253.73032192 .00000450 00000+0 67410-4 0 9998 2 43923 86.6109 317.7914 0002401 94.2244 265.9248 14.72256686411837 IRIDIUM 168 1 43924U 19002C 26253.59604598 .00000153 00000+0 47452-4 0 9992 2 43924 86.3990 317.9955 0002243 95.9173 264.2278 14.34217048401216 IRIDIUM 173 1 43925U 19002D 26253.79267065 .00000151 00000+0 46863-4 0 9992 2 43925 86.3987 317.7985 0002287 94.2184 265.9273 14.34217638401225 IRIDIUM 169 1 43926U 19002E 26253.87539996 .00000195 00000+0 57187-4 0 9996 2 43926 86.4283 349.3850 0002486 86.1892 273.9591 14.38609349402541 IRIDIUM 172 1 43927U 19002F 26253.78633037 .00000155 00000+0 48194-4 0 9992 2 43927 86.3987 317.8096 0002277 95.5172 264.6283 14.34217497401232 IRIDIUM 175 1 43928U 19002G 26253.94788114 .00000108 00000+0 25945-4 0 9995 2 43928 86.4461 254.6556 0001671 343.1219 16.9926 14.43644882411359 IRIDIUM 171 1 43929U 19002H 26253.69753323 .00000153 00000+0 47560-4 0 9999 2 43929 86.3998 318.1625 0002199 92.7187 267.4260 14.34218107401219 IRIDIUM 170 1 43930U 19002J 26253.66855227 .00000456 00000+0 68456-4 0 9997 2 43930 86.6109 317.8189 0002475 95.0628 265.0871 14.72254083411838 IRIDIUM 167 1 43931U 19002K 26253.55165027 .00000107 00000+0 31310-4 0 9990 2 43931 86.3989 317.9308 0002172 88.8285 271.3160 14.34217199401193 IRIDIUM 181 1 56726U 23068S 26253.72825421 .00000200 00000+0 53340-4 0 9994 2 56726 86.4536 21.0212 0002085 97.2585 262.8853 14.43310511174772 IRIDIUM 177 1 56727U 23068T 26253.59315431 .00000572 00000+0 77233-4 0 9994 2 56727 86.1930 288.2636 0002577 92.9856 267.1658 14.77160043178993 IRIDIUM 174 1 56728U 23068U 26253.72416084 .00000479 00000+0 72059-4 0 9993 2 56728 86.6117 317.9517 0002700 94.0920 266.0606 14.72254669178609 IRIDIUM 178 1 56729U 23068V 26253.77014547 .00000626 00000+0 79252-4 0 9993 2 56729 86.6599 349.6194 0002500 94.4744 265.6764 14.80036730179026 IRIDIUM 179 1 56730U 23068W 26253.76479579 .00000752 00000+0 95908-4 0 9990 2 56730 86.6837 358.8490 0002370 90.9543 269.1950 14.80044684179020